Weather History for Pineville, WV

Change the Weather History Date:

Saturday, December 21, 2013

  Actual Average (KBKW) Record (KBKW)
Temperature  
Mean Temperature 58 °F 33 °F  
Max Temperature 71 °F 41 °F 67 °F (2013)
Min Temperature 47 °F 25 °F -7 °F (1942)
Degree Days  
Heating Degree Days 6 32  
Month to date heating degree days 624  
Since 1 July heating degree days 1764  
Cooling Degree Days 0 0  
Month to date cooling degree days 0  
Year to date cooling degree days 557  
Growing Degree Days 8 (Base 50)    
Moisture  
Dew Point 54 °F    
Average Humidity 85    
Maximum Humidity 98    
Minimum Humidity 57    
Precipitation  
Precipitation 0.00 in 0.09 in 1.50 in (1911)
Month to date precipitation 2.05  
Year to date precipitation 40.24  
Snow  
Snow 0.00 in - - ()
Month to date snowfall  
Since 1 September snowfall  
Snow Depth -    
Sea Level Pressure  
Sea Level Pressure 29.99 in    
Wind  
Wind Speed - (North)    
Max Wind Speed -    
Max Gust Speed -    
Visibility 10 miles    
Events Rain    
T = Trace of Precipitation, MM = Missing Value Source: NWS Daily Summary

Daily Weather History Graph

Daily Weather History Graph

Search for Another Location

Airport:

Trip Planner

Search our weather history database for the weather conditions in past years. The results will help you decide how hot, cold, wet, or windy it might be!

Date:

Astronomy

Dec. 21, 2013 Rise Set
Actual Time 7:37 AM EST 5:11 PM EST
Civil Twilight 7:08 AM EST 5:40 PM EST
Nautical Twilight 6:35 AM EST 6:13 PM EST
Astronomical Twilight 6:03 AM EST 6:45 PM EST
Moon 9:22 PM EST (12/21) 10:06 AM EST (12/21)
Length of Visible Light 10h 32m
Length of Day
9h 33m
Waning Gibbous, 84% of the Moon is Illuminated
Dec 21
Waning Gibbous
Dec 25
Last Quarter
Jan 1
New
Jan 7
First Quarter
Jan 15
Full

Hourly Weather History & Observations

Time (EST) Temp. Dew Point Humidity Pressure Visibility Wind Dir Wind Speed Gust Speed Precip Events Conditions
12:15 AM 54.3 °F 49.1 °F 83% 30.09 in 10.0 mi North - - N/A   Overcast
12:35 AM 53.4 °F 49.1 °F 85% 30.09 in 10.0 mi North - - N/A   Overcast
12:55 AM 52.5 °F 48.6 °F 86% 30.08 in 10.0 mi North - - N/A   Overcast
1:15 AM 51.1 °F 47.7 °F 88% 30.07 in 10.0 mi North - - N/A   Overcast
1:35 AM 50.2 °F 47.3 °F 90% 30.06 in 10.0 mi North - - N/A   Mostly Cloudy
1:55 AM 49.3 °F 46.9 °F 92% 30.06 in 10.0 mi North - - N/A   Mostly Cloudy
2:15 AM 49.6 °F 46.9 °F 90% 30.06 in 10.0 mi North - - N/A   Overcast
2:35 AM 50.4 °F 47.5 °F 90% 30.06 in 10.0 mi North - - N/A   Overcast
2:55 AM 50.2 °F 47.5 °F 90% 30.06 in 10.0 mi North - - N/A   Overcast
3:15 AM 50.4 °F 47.8 °F 91% 30.06 in 10.0 mi North - - N/A   Overcast
3:35 AM 50.2 °F 47.8 °F 92% 30.05 in 10.0 mi North - - N/A   Overcast
3:55 AM 50.0 °F 48.2 °F 94% 30.05 in 10.0 mi North - - N/A   Overcast
4:15 AM 50.2 °F 48.2 °F 93% 30.05 in 10.0 mi North - - N/A   Overcast
4:35 AM 49.5 °F 47.7 °F 94% 30.05 in 10.0 mi North - - N/A   Mostly Cloudy
4:55 AM 49.3 °F 47.3 °F 93% 30.05 in 10.0 mi North - - N/A   Scattered Clouds
5:15 AM 48.7 °F 47.1 °F 94% 30.04 in 10.0 mi North - - N/A   Clear
5:35 AM 48.0 °F 46.6 °F 95% 30.04 in 10.0 mi North - - N/A   Scattered Clouds
5:55 AM 47.8 °F 46.6 °F 95% 30.05 in 10.0 mi North - - N/A   Mostly Cloudy
6:15 AM 47.7 °F 46.6 °F 96% 30.05 in 10.0 mi North - - N/A   Scattered Clouds
6:35 AM 47.8 °F 46.4 °F 95% 30.03 in 10.0 mi North - - N/A   Scattered Clouds
6:55 AM 48.4 °F 47.1 °F 95% 30.04 in 10.0 mi North - - N/A   Scattered Clouds
7:15 AM 48.4 °F 46.9 °F 95% 30.03 in 10.0 mi North - - N/A   Clear
7:35 AM 48.6 °F 47.5 °F 96% 30.04 in 10.0 mi North - - N/A   Scattered Clouds
7:55 AM 48.7 °F 47.5 °F 95% 30.03 in 10.0 mi North - - N/A   Scattered Clouds
8:15 AM 49.1 °F 47.5 °F 94% 30.03 in 10.0 mi North - - N/A   Clear
8:35 AM 50.2 °F 48.6 °F 94% 30.02 in 10.0 mi North - - N/A   Clear
8:55 AM 51.3 °F 49.3 °F 93% 30.02 in 10.0 mi North - - N/A   Clear
9:15 AM 52.9 °F 50.4 °F 91% 30.02 in 10.0 mi North - - N/A   Clear
9:35 AM 53.6 °F 51.3 °F 92% 30.02 in 10.0 mi North - - N/A   Clear
9:55 AM 56.5 °F 52.7 °F 87% 30.02 in 10.0 mi North - - N/A   Clear
10:15 AM 60.6 °F 53.4 °F 77% 30.03 in 10.0 mi North - - N/A   Clear
10:35 AM 64.2 °F 54.5 °F 71% 30.03 in 10.0 mi North - - N/A   Clear
10:55 AM 66.0 °F 54.1 °F 65% 30.01 in 10.0 mi North - - N/A   Clear
11:15 AM 67.3 °F 53.8 °F 62% 30.01 in 10.0 mi North - - N/A   Clear
11:35 AM 69.6 °F 54.1 °F 58% 29.99 in 10.0 mi North - - N/A   Clear
11:55 AM 70.2 °F 54.5 °F 57% 29.98 in 10.0 mi North - - N/A   Clear
12:15 PM 70.0 °F 54.5 °F 58% 29.98 in 10.0 mi North - - N/A   Clear
12:35 PM 70.2 °F 54.7 °F 58% 29.99 in 10.0 mi North - - N/A   Clear
12:55 PM 69.3 °F 56.3 °F 63% 29.98 in 10.0 mi North - - N/A Rain Light Rain
1:15 PM 64.8 °F 59.9 °F 84% 29.96 in 10.0 mi North - - N/A Rain Light Rain
1:35 PM 65.8 °F 59.9 °F 81% 29.95 in 7.0 mi North - - N/A Rain Rain
1:55 PM 62.6 °F 60.8 °F 94% 29.95 in 7.0 mi North - - N/A Rain Light Rain
2:15 PM 62.4 °F 61.7 °F 97% 29.94 in 10.0 mi North - - N/A   Light Drizzle
2:35 PM 63.1 °F 62.6 °F 98% 29.93 in 10.0 mi North - - N/A   Mostly Cloudy
2:55 PM 63.9 °F 63.0 °F 97% 29.93 in 10.0 mi North - - N/A   Mostly Cloudy
3:15 PM 63.9 °F 62.4 °F 95% 29.93 in 10.0 mi North - - N/A   Mostly Cloudy
3:35 PM 64.2 °F 61.7 °F 91% 29.93 in 10.0 mi North - - N/A   Mostly Cloudy
3:55 PM 64.2 °F 61.0 °F 89% 29.93 in 10.0 mi North - - N/A   Mostly Cloudy
4:15 PM 67.6 °F 60.1 °F 77% 29.94 in 10.0 mi North - - N/A Rain Light Rain
4:35 PM 67.8 °F 60.1 °F 76% 29.93 in 10.0 mi North - - N/A   Mostly Cloudy
4:55 PM 68.0 °F 60.3 °F 76% 29.93 in 10.0 mi North - - N/A   Overcast
5:15 PM 65.1 °F 59.9 °F 83% 29.94 in 10.0 mi North - - N/A   Mostly Cloudy
5:35 PM 63.0 °F 59.7 °F 89% 29.94 in 10.0 mi North - - N/A   Mostly Cloudy
5:55 PM 63.1 °F 60.3 °F 90% 29.94 in 10.0 mi North - - N/A   Overcast
6:15 PM 62.6 °F 59.9 °F 91% 29.94 in 10.0 mi North - - N/A   Overcast
6:35 PM 61.7 °F 59.0 °F 91% 29.94 in 10.0 mi North - - N/A   Mostly Cloudy
6:55 PM 61.5 °F 59.0 °F 91% 29.95 in 10.0 mi North - - N/A   Mostly Cloudy
7:15 PM 61.3 °F 59.4 °F 93% 29.95 in 10.0 mi North - - N/A   Overcast
7:35 PM 63.1 °F 59.7 °F 89% 29.95 in 10.0 mi North - - N/A   Mostly Cloudy
7:55 PM 62.4 °F 59.7 °F 91% 29.96 in 10.0 mi North - - N/A   Mostly Cloudy
8:15 PM 64.6 °F 59.9 °F 85% 29.96 in 10.0 mi North - - N/A   Mostly Cloudy
8:35 PM 69.3 °F 60.3 °F 73% 29.95 in 10.0 mi North - - N/A   Overcast
8:55 PM 67.1 °F 59.7 °F 77% 29.93 in 10.0 mi North - - N/A   Overcast
9:15 PM 69.1 °F 59.9 °F 72% 29.93 in 10.0 mi North - - N/A   Mostly Cloudy
9:35 PM 70.3 °F 59.9 °F 69% 29.92 in 10.0 mi North - - N/A   Scattered Clouds
9:55 PM 70.5 °F 59.9 °F 69% 29.91 in 10.0 mi North - - N/A   Clear
10:15 PM 69.1 °F 59.9 °F 72% 29.90 in 10.0 mi North - - N/A   Scattered Clouds
10:35 PM 70.0 °F 59.9 °F 70% 29.89 in 10.0 mi North - - N/A   Scattered Clouds
10:55 PM 69.8 °F 59.9 °F 71% 29.89 in 10.0 mi North - - N/A   Clear
11:15 PM 69.6 °F 59.9 °F 71% 29.89 in 10.0 mi North - - N/A   Clear
11:35 PM 65.7 °F 59.2 °F 80% 29.89 in 10.0 mi North - - N/A   Scattered Clouds
11:55 PM 63.1 °F 58.6 °F 85% 29.88 in 10.0 mi North - - N/A   Scattered Clouds